KF4PPJ Weather Reports


time (UTC)temp
C
wind
direction
speed
KPH
gust
KPH
rain 1hr
cm
rain 24hr
cm
rain mn
cm
humidity
%
barometer
mb
20240614123111 -17 198 0.0 3.2 0.00 0.00 0.00 1022.6
20240614122608 -17 208 0.0 1.6 0.00 0.00 0.00 1022.4
20240614122107 -17 194 0.0 3.2 0.00 0.00 0.00 1022.5
20240614121607 -17 155 3.2 3.2 0.00 0.00 0.00 1022.4
20240614121106 -17 216 3.2 8.0 0.00 0.00 0.00 1022.4
20240614120605 -17 277 4.8 8.0 0.00 0.00 0.00 1022.4
20240614120102 -17 197 1.6 8.0 0.00 0.00 0.00 1022.5
20240614115601 -17 207 3.2 11.3 0.00 0.00 0.00 1022.4
20240614115100 -17 186 3.2 9.7 0.00 0.00 0.00 1022.4
20240614114558 -17 231 3.2 11.3 0.00 0.00 0.00 1022.4
20240614114058 -17 199 0.0 3.2 0.00 0.00 0.00 1022.5
20240614113556 -17 225 3.2 11.3 0.00 0.00 0.00 1022.5
20240614113056 -17 207 0.0 3.2 0.00 0.00 0.00 1022.5
20240614112554 -17 197 0.0 4.8 0.00 0.00 0.00 1022.4
20240614112053 -17 125 1.6 8.0 0.00 0.00 0.00 1022.6
20240614111552 -17 172 0.0 4.8 0.00 0.00 0.00 1022.2
20240614111050 -17 175 1.6 1.6 0.00 0.00 0.00 1022.2
20240614110549 -17 185 1.6 8.0 0.00 0.00 0.00 1022.1
20240614110048 -17 255 1.6 3.2 0.00 0.00 0.00 1022.3
20240614105545 -17 154 0.0 0.0 0.00 0.00 0.00 1022.3
20240614105044 -17 157 3.2 3.2 0.00 0.00 0.00 1022.2
20240614104542 -17 176 0.0 0.0 0.00 0.00 0.00 1022.4
20240614104042 -17 185 1.6 1.6 0.00 0.00 0.00 1022.2
20240614103542 -17 203 0.0 1.6 0.00 0.00 0.00 1022.0
20240614103041 -17 169 0.0 3.2 0.00 0.00 0.00 1022.3
20240614102540 -17 192 0.0 4.8 0.00 0.00 0.00 1022.3
20240614102038 -17 205 0.0 1.6 0.00 0.00 0.00 1022.3
20240614101536 -17 200 0.0 0.0 0.00 0.00 0.00 1022.2
20240614101036 -17 180 0.0 0.0 0.00 0.00 0.00 1022.2
20240614100535 -17 200 0.0 0.0 0.00 0.00 0.00 1022.2
20240614100034 -17 121 0.0 0.0 0.00 0.00 0.00 1022.1
20240614095534 -17 162 0.0 0.0 0.00 0.00 0.00 1021.8
20240614095032 -17 208 0.0 0.0 0.00 0.00 0.00 1022.2
20240614094531 -17 204 0.0 0.0 0.00 0.00 0.00 1022.2
20240614094030 -17 88 0.0 0.0 0.00 0.00 0.00 1022.0
20240614093528 -17 188 0.0 0.0 0.00 0.00 0.00 1022.0
20240614093025 -17 165 0.0 0.0 0.00 0.00 0.00 1022.0
20240614092524 -17 178 0.0 0.0 0.00 0.00 0.00 1022.0
20240614092023 -17 169 0.0 0.0 0.00 0.00 0.00 1021.9
20240614091523 -17 168 0.0 0.0 0.00 0.00 0.00 1022.1
20240614091022 -17 178 0.0 1.6 0.00 0.00 0.00 1021.9
20240614090521 -17 183 0.0 0.0 0.00 0.00 0.00 1021.8
20240614090019 -17 179 0.0 3.2 0.00 0.00 0.00 1021.9
20240614085511 -17 175 0.0 0.0 0.00 0.00 0.00 1021.8
20240614085009 -17 183 0.0 1.6 0.00 0.00 0.00 1022.0
20240614084508 -17 151 0.0 0.0 0.00 0.00 0.00 1021.9
20240614084007 -17 177 0.0 1.6 0.00 0.00 0.00 1021.6
20240614083506 -17 143 0.0 1.6 0.00 0.00 0.00 1021.6
20240614083005 -17 175 0.0 0.0 0.00 0.00 0.00 1021.6
20240614082503 -17 169 0.0 0.0 0.00 0.00 0.00 1021.5
20240614082002 -17 174 0.0 1.6 0.00 0.00 0.00 1021.4
20240614081501 -17 205 0.0 1.6 0.00 0.00 0.00 1021.5
20240614081000 -17 171 0.0 0.0 0.00 0.00 0.00 1021.4
20240614080458 -17 146 0.0 1.6 0.00 0.00 0.00 1021.5
20240614075958 -17 177 0.0 1.6 0.00 0.00 0.00 1021.5
20240614075457 -17 140 0.0 0.0 0.00 0.00 0.00 1021.4
20240614074955 -17 195 0.0 0.0 0.00 0.00 0.00 1021.3
20240614074453 -17 161 0.0 0.0 0.00 0.00 0.00 1021.3
20240614073951 -17 175 0.0 0.0 0.00 0.00 0.00 1021.2
20240614073451 -17 229 0.0 1.6 0.00 0.00 0.00 1021.2
20240614072949 -17 197 0.0 0.0 0.00 0.00 0.00 1021.2
20240614072448 -17 200 0.0 0.0 0.00 0.00 0.00 1021.4
20240614071947 -17 212 0.0 3.2 0.00 0.00 0.00 1021.5
20240614071446 -17 133 0.0 1.6 0.00 0.00 0.00 1021.1
20240614070945 -17 157 0.0 1.6 0.00 0.00 0.00 1021.2
20240614070445 -17 233 1.6 1.6 0.00 0.00 0.00 1021.1
20240614065943 -17 161 0.0 1.6 0.00 0.00 0.00 1021.0
20240614065442 -17 198 0.0 3.2 0.00 0.00 0.00 1021.0
20240614064939 -17 208 1.6 1.6 0.00 0.00 0.00 1020.9
20240614064438 -17 286 4.8 9.7 0.00 0.00 0.00 1020.8
20240614063937 -17 206 0.0 3.2 0.00 0.00 0.00 1020.9
20240614063436 -17 242 4.8 12.9 0.00 0.00 0.00 1020.7
20240614062936 -17 196 1.6 4.8 0.00 0.00 0.00 1020.7
20240614062435 -17 264 3.2 14.5 0.00 0.00 0.00 1020.7
20240614061934 -17 175 3.2 9.7 0.00 0.00 0.00 1020.5
20240614061433 -17 203 3.2 4.8 0.00 0.00 0.00 1020.5
20240614060933 -17 210 11.3 14.5 0.00 0.00 0.00 1020.2
20240614060430 -17 190 8.0 12.9 0.00 0.00 0.00 1020.4
20240614055928 -17 238 6.4 12.9 0.00 0.00 0.00 1020.4
20240614055427 -17 243 6.4 11.3 0.00 0.00 0.00 1020.1
20240614054926 -17 204 4.8 4.8 0.00 0.00 0.00 1020.0
20240614054424 -17 271 6.4 9.7 0.00 0.00 0.00 1019.9
20240614053924 -17 155 4.8 4.8 0.00 0.00 0.00 1019.9
20240614053422 -17 214 3.2 3.2 0.00 0.00 0.00 1020.1
20240614052921 -17 72 0.0 0.0 0.00 0.00 0.00 1019.9
20240614052420 -17 200 0.0 0.0 0.00 0.00 0.00 1019.9
20240614051918 -17 184 0.0 0.0 0.00 0.00 0.00 1020.0
20240614051418 -17 204 0.0 0.0 0.00 0.00 0.00 1019.9
20240614050916 -17 223 0.0 1.6 0.00 0.00 0.00 1019.9
20240614050415 -17 210 0.0 1.6 0.00 0.00 0.00 1019.7
20240614045914 -17 307 0.0 1.6 0.00 0.00 0.00 1019.6
20240614045413 -17 71 1.6 3.2 0.00 0.00 0.00 1019.8
20240614044911 -17 214 0.0 3.2 0.00 0.00 0.00 1019.7
20240614044410 -17 158 0.0 0.0 0.00 0.00 0.00 1019.6
20240614043908 -17 227 0.0 1.6 0.00 0.00 0.00 1019.5
20240614043407 -17 206 0.0 1.6 0.00 0.00 0.00 1019.3
20240614042906 -17 188 0.0 0.0 0.00 0.00 0.00 1019.4
20240614042404 -17 183 0.0 1.6 0.00 0.00 0.00 1019.3
20240614041903 -17 163 0.0 0.0 0.00 0.00 0.00 1019.2
20240614041400 -17 131 1.6 1.6 0.00 0.00 0.00 1018.9
20240614040858 -17 191 0.0 0.0 0.00 0.00 0.00 1019.0
20240614040358 -17 133 0.0 1.6 0.00 0.00 0.00 1018.8
20240614035856 -17 177 0.0 0.0 0.00 0.00 0.00 1019.2
20240614035356 -17 165 0.0 0.0 0.00 0.00 0.00 1018.9
20240614034855 -17 167 0.0 0.0 0.00 0.00 0.00 1018.8
20240614034353 -17 165 0.0 0.0 0.00 0.00 0.00 1018.9
20240614033852 -17 196 0.0 0.0 0.00 0.00 0.00 1019.0
20240614033351 -17 204 0.0 0.0 0.00 0.00 0.00 1018.8
20240614032850 -17 224 1.6 3.2 0.00 0.00 0.00 1019.0
20240614032348 -17 219 3.2 3.2 0.00 0.00 0.00 1018.9
20240614031847 -17 220 1.6 3.2 0.00 0.00 0.00 1018.8
20240614031346 -17 207 1.6 1.6 0.00 0.00 0.00 1018.9
20240614030845 -17 196 1.6 1.6 0.00 0.00 0.00 1018.8
20240614030342 -17 216 1.6 3.2 0.00 0.00 0.00 1019.0
20240614025841 -17 265 3.2 3.2 0.00 0.00 0.00 1018.8
20240614025339 -17 216 3.2 4.8 0.00 0.00 0.00 1018.8
20240614024838 -17 215 3.2 4.8 0.00 0.00 0.00 1018.8
20240614024337 -17 214 4.8 4.8 0.00 0.00 0.00 1018.7
20240614023836 -17 218 3.2 4.8 0.00 0.00 0.00 1019.0
20240614023335 -17 217 1.6 3.2 0.00 0.00 0.00 1019.0
20240614022834 -17 211 1.6 3.2 0.00 0.00 0.00 1018.6
20240614022332 -17 234 3.2 4.8 0.00 0.00 0.00 1018.8
20240614021832 -17 239 3.2 4.8 0.00 0.00 0.00 1018.8
20240614021332 -17 211 1.6 3.2 0.00 0.00 0.00 1018.7
20240614020830 -17 235 1.6 3.2 0.00 0.00 0.00 1018.9
20240614020328 -17 262 3.2 3.2 0.00 0.00 0.00 1019.0
20240614015826 -17 249 3.2 4.8 0.00 0.00 0.00 1018.7
20240614015325 -17 220 3.2 3.2 0.00 0.00 0.00 1018.7
20240614014824 -17 226 4.8 4.8 0.00 0.00 0.00 1019.0
20240614014322 -17 210 3.2 4.8 0.00 0.00 0.00 1018.8
20240614013821 -17 195 0.0 3.2 0.00 0.00 0.00 1018.6
20240614013318 -17 220 3.2 8.0 0.00 0.00 0.00 1018.5
20240614012817 -17 200 4.8 4.8 0.00 0.00 0.00 1018.6
20240614012316 -17 192 0.0 4.8 0.00 0.00 0.00 1018.7
20240614011816 -17 299 3.2 8.0 0.00 0.00 0.00 1018.7
20240614011314 -17 290 6.4 8.0 0.00 0.00 0.00 1018.5
20240614010813 -17 209 1.6 4.8 0.00 0.00 0.00 1018.6
20240614010313 -17 198 1.6 3.2 0.00 0.00 0.00 1018.8
20240614005813 -17 282 4.8 4.8 0.00 0.00 0.00 1018.8
20240614005310 -17 230 3.2 3.2 0.00 0.00 0.00 1018.6
20240614004810 -17 285 3.2 4.8 0.00 0.00 0.00 1018.7
20240614004308 -17 236 6.4 8.0 0.00 0.00 0.00 1018.6
20240614003806 -17 278 4.8 4.8 0.00 0.00 0.00 1018.7
20240614003305 -17 208 4.8 4.8 0.00 0.00 0.00 1018.9
20240614002802 -17 222 1.6 4.8 0.00 0.00 0.00 1018.6
20240614002300 -17 213 0.0 3.2 0.00 0.00 0.00 1018.9
20240614001759 19 216 0.0 4.8 0.00 0.00 0.00 51 1018.9
20240614001258 19 274 1.6 3.2 0.00 0.00 0.00 51 1018.6
20240614000756 -17 203 3.2 4.8 0.00 0.00 0.00 1018.9
20240614000256 -17 215 0.0 4.8 0.00 0.00 0.00 1018.8
20240613235755 -17 182 1.6 4.8 0.00 0.00 0.00 1018.8
20240613235253 -17 259 3.2 4.8 0.00 0.00 0.00 1019.1
20240613234753 19 235 4.8 8.0 0.00 0.00 0.00 50 1018.8
20240613234253 18 228 3.2 4.8 0.00 0.00 0.00 51 1019.0
20240613233751 18 214 4.8 9.7 0.00 0.00 0.00 51 1019.1
20240613233249 18 193 4.8 4.8 0.00 0.00 0.00 51 1018.9
20240613232748 18 240 4.8 9.7 0.00 0.00 0.00 50 1018.9
20240613232246 18 267 3.2 9.7 0.00 0.00 0.00 52 1019.0
20240613231745 18 237 1.6 4.8 0.00 0.00 0.00 54 1019.0
20240613231242 18 247 4.8 8.0 0.00 0.00 0.00 54 1019.0
20240613230741 17 233 1.6 4.8 0.00 0.00 0.00 57 1018.9
20240613230240 17 210 1.6 4.8 0.00 0.00 0.00 58 1019.0
20240613225737 17 213 3.2 8.0 0.00 0.00 0.00 58 1019.0
20240613225235 17 251 3.2 4.8 0.00 0.00 0.00 60 1019.2
20240613224728 17 240 6.4 9.7 0.00 0.00 0.00 59 1019.1
20240613224220 17 245 8.0 11.3 0.00 0.00 0.00 59 1019.0
20240613223719 17 202 4.8 8.0 0.00 0.00 0.00 60 1019.2
20240613223218 16 238 4.8 8.0 0.00 0.00 0.00 62 1019.1
20240613222717 17 213 6.4 9.7 0.00 0.00 0.00 59 1019.1
20240613222217 17 231 4.8 4.8 0.00 0.00 0.00 59 1019.1
20240613221717 17 270 8.0 9.7 0.00 0.00 0.00 57 1018.9
20240613221214 17 217 4.8 8.0 0.00 0.00 0.00 57 1019.0
20240613220713 17 211 8.0 11.3 0.00 0.00 0.00 58 1019.1
20240613220212 17 251 8.0 9.7 0.00 0.00 0.00 58 1019.1
20240613215709 18 212 6.4 11.3 0.00 0.00 0.00 55 1019.1
20240613215207 20 301 4.8 8.0 0.00 0.00 0.00 45 1019.0
20240613214706 20 143 1.6 3.2 0.00 0.00 0.00 45 1019.2
20240613214205 20 290 1.6 1.6 0.00 0.00 0.00 47 1019.0
20240613213703 19 260 4.8 9.7 0.00 0.00 0.00 49 1019.5
20240613213202 18 250 4.8 9.7 0.00 0.00 0.00 50 1019.4
20240613212702 19 314 3.2 4.8 0.00 0.00 0.00 50 1019.4
20240613212200 19 320 3.2 8.0 0.00 0.00 0.00 50 1019.5
20240613211700 18 34 1.6 1.6 0.00 0.00 0.00 52 1019.7
20240613211158 18 226 4.8 8.0 0.00 0.00 0.00 52 1019.7
20240613210657 18 14 3.2 8.0 0.00 0.00 0.00 51 1019.6
20240613210156 18 306 4.8 8.0 0.00 0.00 0.00 51 1019.8
20240613205654 18 185 1.6 3.2 0.00 0.00 0.00 51 1019.8
20240613205154 17 323 1.6 4.8 0.00 0.00 0.00 53 1019.8
20240613204652 18 61 3.2 3.2 0.00 0.00 0.00 53 1019.7
20240613204151 18 264 3.2 4.8 0.00 0.00 0.00 54 1019.7
20240613203650 18 197 3.2 4.8 0.00 0.00 0.00 54 1019.9
20240613203150 18 5 4.8 9.7 0.00 0.00 0.00 54 1019.8
20240613202649 18 223 3.2 4.8 0.00 0.00 0.00 53 1019.8
20240613202148 18 251 3.2 4.8 0.00 0.00 0.00 54 1019.9
20240613201646 18 301 6.4 9.7 0.00 0.00 0.00 55 1019.7
20240613201144 17 291 6.4 9.7 0.00 0.00 0.00 55 1019.8
20240613200643 17 220 4.8 12.9 0.00 0.00 0.00 55 1020.0
20240613200142 18 31 3.2 8.0 0.00 0.00 0.00 55 1020.0
20240613195640 17 300 4.8 9.7 0.00 0.00 0.00 57 1020.1
20240613195139 17 185 1.6 4.8 0.00 0.00 0.00 57 1020.1
20240613194638 17 209 0.0 9.7 0.00 0.00 0.00 58 1020.3
20240613194136 17 267 4.8 14.5 0.00 0.00 0.00 59 1020.2
20240613193635 -17 241 4.8 4.8 0.00 0.00 0.00 1020.3
20240613193135 -17 270 8.0 11.3 0.00 0.00 0.00 1020.4
20240613192633 -17 224 1.6 16.1 0.00 0.00 0.00 1020.2
20240613192132 -17 233 6.4 9.7 0.00 0.00 0.00 1020.3
20240613191630 -17 190 1.6 8.0 0.00 0.00 0.00 1020.3
20240613191130 -17 215 8.0 12.9 0.00 0.00 0.00 1020.4
20240613190629 -17 300 6.4 11.3 0.00 0.00 0.00 1020.3
20240613190127 -17 210 4.8 4.8 0.00 0.00 0.00 1020.4
20240613185627 20 307 8.0 11.3 0.00 0.00 0.00 61 1020.7
20240613185126 -17 292 4.8 14.5 0.00 0.00 0.00 1020.5
20240613184625 -17 300 4.8 9.7 0.00 0.00 0.00 1020.7
20240613184123 -17 281 8.0 11.3 0.00 0.00 0.00 1020.5
20240613183622 -17 169 6.4 8.0 0.00 0.00 0.00 1020.3
20240613183121 -17 316 8.0 9.7 0.00 0.00 0.00 1020.6
20240613182619 -17 261 6.4 12.9 0.00 0.00 0.00 1020.5
20240613182119 -17 205 1.6 4.8 0.00 0.00 0.00 1020.6
20240613181618 -17 239 14.5 22.5 0.00 0.00 0.00 1020.6
20240613181117 -17 309 19.3 24.1 0.00 0.00 0.00 1020.6
20240613180617 -17 300 6.4 9.7 0.00 0.00 0.00 1020.6
20240613180115 -17 287 9.7 17.7 0.00 0.00 0.00 1020.7
20240613175614 -17 159 3.2 8.0 0.00 0.00 0.00 1020.8
20240613175112 -17 191 17.7 22.5 0.00 0.00 0.00 1020.9
20240613174611 -17 266 12.9 14.5 0.00 0.00 0.00 1020.8
20240613174110 -17 199 3.2 4.8 0.00 0.00 0.00 1020.7
20240613173609 -17 198 3.2 3.2 0.00 0.00 0.00 1021.0
20240613173108 -17 220 1.6 8.0 0.00 0.00 0.00 1021.0
20240613172607 -17 228 4.8 12.9 0.00 0.00 0.00 1021.0
20240613172105 -17 168 1.6 3.2 0.00 0.00 0.00 1021.1
20240613171604 -17 308 8.0 11.3 0.00 0.00 0.00 1021.1
20240613171103 -17 153 0.0 3.2 0.00 0.00 0.00 1021.3
20240613170601 -17 260 6.4 11.3 0.00 0.00 0.00 1021.3
20240613170100 -17 337 6.4 9.7 0.00 0.00 0.00 1021.3
20240613165559 -17 356 3.2 8.0 0.00 0.00 0.00 1021.4
20240613165058 -17 306 8.0 11.3 0.00 0.00 0.00 1021.6
20240613164557 -17 275 8.0 14.5 0.00 0.00 0.00 1021.4
20240613164056 -17 316 8.0 14.5 0.00 0.00 0.00 1021.4
20240613163555 -17 279 3.2 14.5 0.00 0.00 0.00 1021.6
20240613163053 -17 338 4.8 8.0 0.00 0.00 0.00 1021.5
20240613162546 -17 38 8.0 14.5 0.00 0.00 0.00 1021.2
20240613162045 -17 291 3.2 3.2 0.00 0.00 0.00 1021.3
20240613161544 -17 225 3.2 12.9 0.00 0.00 0.00 1021.3
20240613161044 -17 125 0.0 3.2 0.00 0.00 0.00 1021.5
20240613160543 -17 213 1.6 4.8 0.00 0.00 0.00 1021.4
20240613160041 -17 119 0.0 4.8 0.00 0.00 0.00 1021.4
20240613155540 -17 332 3.2 4.8 0.00 0.00 0.00 1021.3
20240613155039 -17 219 3.2 3.2 0.00 0.00 0.00 1021.1
20240613154538 -17 137 1.6 4.8 0.00 0.00 0.00 1021.2
20240613154036 -17 276 3.2 9.7 0.00 0.00 0.00 1021.2
20240613153532 -17 74 1.6 9.7 0.00 0.00 0.00 1021.3
20240613153032 -17 91 1.6 1.6 0.00 0.00 0.00 1021.5
20240613152529 -17 66 1.6 3.2 0.00 0.00 0.00 1021.4
20240613152029 -17 226 3.2 4.8 0.00 0.00 0.00 1021.5
20240613151527 -17 199 0.0 1.6 0.00 0.00 0.00 1021.7
20240613151026 -17 237 1.6 4.8 0.00 0.00 0.00 1021.5
20240613150524 -17 332 3.2 4.8 0.00 0.00 0.00 1021.5
20240613150024 -17 273 4.8 4.8 0.00 0.00 0.00 1021.7
20240613145523 -17 200 1.6 8.0 0.00 0.00 0.00 1021.8
20240613145023 -17 92 1.6 4.8 0.00 0.00 0.00 1021.5
20240613144522 -17 188 0.0 3.2 0.00 0.00 0.00 1021.8
20240613144021 -17 84 0.0 3.2 0.00 0.00 0.00 1021.6
20240613143520 -17 197 1.6 3.2 0.00 0.00 0.00 1021.6
20240613143019 -17 195 0.0 0.0 0.00 0.00 0.00 1021.7
20240613142517 -17 195 0.0 1.6 0.00 0.00 0.00 1021.6
20240613142018 -17 185 0.0 1.6 0.00 0.00 0.00 1021.5
20240613141515 -17 193 0.0 3.2 0.00 0.00 0.00 1021.5
20240613141014 -17 163 1.6 3.2 0.00 0.00 0.00 1021.5
20240613140513 -17 185 0.0 4.8 0.00 0.00 0.00 1021.3
20240613140012 -17 173 1.6 1.6 0.00 0.00 0.00 1021.5
20240613135510 -17 187 0.0 1.6 0.00 0.00 0.00 1021.4
20240613135010 -17 135 3.2 4.8 0.00 0.00 0.00 1021.7
20240613134508 -17 84 1.6 1.6 0.00 0.00 0.00 1021.7
20240613134007 -17 173 0.0 0.0 0.00 0.00 0.00 1021.8
20240613133504 -17 184 0.0 0.0 0.00 0.00 0.00 1021.6
20240613133002 -17 169 0.0 0.0 0.00 0.00 0.00 1021.7
20240613132500 -17 165 0.0 0.0 0.00 0.00 0.00 1021.6
20240613131959 -17 177 0.0 0.0 0.00 0.00 0.00 1021.7
20240613131457 -17 173 0.0 0.0 0.00 0.00 0.00 1021.6
20240613130956 -17 181 0.0 0.0 0.00 0.00 0.00 1021.7
20240613130456 -17 181 0.0 0.0 0.00 0.00 0.00 1021.8
20240613125957 -17 183 0.0 0.0 0.00 0.00 0.00 1021.6
20240613125456 -17 174 0.0 0.0 0.00 0.00 0.00 1021.6
20240613124954 -17 167 0.0 0.0 0.00 0.00 0.00 1021.7
20240613124454 -17 180 0.0 0.0 0.00 0.00 0.00 1021.6
20240613123953 -17 180 0.0 0.0 0.00 0.00 0.00 1021.8
20240613123452 -17 173 0.0 0.0 0.00 0.00 0.00 1021.7